Погода в Майдакове

Россия / Ивановская область     56°53′52″N   41°49′08″E
темп.,
°C
ветер,
м/с
пор.,
м/с
влажн.,
%
обл.,
%
осадки,
мм/ч
давл.,
гПа
погр.,
м
10 апреля, сб
сб1000:00−2ю37900 0.0 102788
03:00−2ю25920 0.0 102883
06:00−4ю37895 0.0 1029103
09:00+3ю48840 0.0 1029285
12:00+7ю46630 0.0 1028984
15:00+8ю35545 0.0 10271524
18:00+5ююв37765 0.0 1026128
21:00+1ююв410895 0.0 1027173
11 апреля, вс
вс1100:00−1ю39930 0.0 1027157
03:00−1ю38920 0.0 1027133
06:000ююз38850 0.0 1027144
09:00+6юз36675 0.0 1029307
12:00+10юз35580 0.0 1029646
15:00+12юз34520 0.0 10301013
18:00+9юз22720 0.0 103120
21:00+5ю11835 0.0 103310
12 апреля, пн
пн1200:00+5ююв228568 0.0 103318
03:00+3ююв2286100 0.0 103419
06:00+3юв228348 0.0 103529
09:00+8вюв356560 0.0 1035313
12:00+12вюв475370 0.0 1034694
15:00+12вюв5749100 0.0 1033795
18:00+9вюв4964100 0.0 1032442
21:00+6вюв41188100 0.0 1032326
13 апреля, вт
вт1300:00+6вюв3996100 0.0 1031256
03:00+6вюв3997100 0.0 1030205
06:00+6юв3896100 0.0 1029167
09:00+11ююв487466 0.0 1028313
12:00+17ю575135 0.0 1026897
15:00+19ю563948 0.0 10251651
18:00+16ююв374810 0.0 1025165
21:00+11ююв366274 0.0 102586
14 апреля, ср
ср1400:00+9ю3571100 0.0 102578
03:00+8ю2375100 0.0 102534
06:00+7ююв22765 0.0 102529
09:00+14ю355746 0.0 1025277
12:00+18ю464399 0.0 1024833
15:00+19ююв4640100 0.0 10221306
18:00+17юв365192 0.0 1021129
21:00+12юв3116785 0.0 1021203